Torna al catalogo

STARLINK-35476

AttivoComunicazioniVLEO
NORAD 66825·PAYLOAD·🇺🇸 United States

Lanciato Dec 2, 2025 da Vandenberg Space Force Base

Loading…

Prossimi Passaggi (prossime 24 ore)

TLE

AggiornatoSource: CelesTrak SupGP

Epoca: Sep 14, 2026, 22:56 UTC

1 66825C 25280E   26257.95604167 -.00021668  00000+0 -18149-2 0  2570
2 66825  70.0013 217.3854 0003329 264.3150  62.1637 14.98361505    16

Traccia STARLINK-35476 in tempo reale con AllMySat

Download on the App Store